Flag for Switzerland Weather past 2 weeks in Montreux, Vaud, Switzerland

Now
30 °F

Chilly.


Feels Like: 27 °F
Forecast: 12 / 30 °F
Wind: 3 mph from South

Location: Aigle

Current Time: Jan 26, 2015 at 6:32:17 AM

Latest Report: Jan 26, 2015 at 5:00 AM


Visibility: N/A

Pressure: 30.41 "Hg

Humidity: 73%

Dew point: 23 °F

Location of MontreuxLocation

Historic Weather in Montreux — Graph

°F

Montreux temperature yesterday

Maximum temperature yesterday: 39 °F (at 2:00 PM)
Minimum temperature yesterday: 30 °F (at 11:00 PM)
Average temperature yesterday: 35 °F

Past Weeks' High & Low Weather Summary

 TemperatureHumidityPressure
High53 °F (Jan 11, 5:00 AM)100% (Jan 17, 11:00 PM)30.60 "Hg (Jan 17, 11:00 PM)
Low29 °F (Jan 26, 3:00 AM)36% (Jan 13, 12:00 PM)29.68 "Hg (Jan 16, 3:00 PM)
Average38 °F78%30.08 "Hg
* Reported Jan 11 5:00 AM — Jan 26 5:00 AM, Montreux, Weather by CustomWeather, © 2014

Note: Actual official high and low records may vary slightly from our data, if they occured in-between our weather recording intervals... More about our weather records

Advertising

Montreux weather history for previous 24 hours

 ConditionsComfort  
Time TempWeatherWind HumidityBarometerVisibility
5:00 AM
Jan 26
30 °FChilly.3 mph73%30.41 "HgN/A
4:00 AM29 °FFog.2 mph84%30.41 "Hg8 mi
3:00 AM29 °FChilly.5 mph88%30.41 "HgN/A
2:00 AM30 °FChilly.2 mph85%30.41 "HgN/A
1:00 AM30 °FChilly.1 mph88%30.41 "HgN/A
12:00 AM31 °FChilly.2 mph81%30.41 "HgN/A
11:00 PM
Jan 25
30 °FChilly.2 mph83%30.42 "HgN/A
10:00 PM31 °FChilly.1 mph76%30.42 "HgN/A
9:00 PM33 °FChilly.1 mph72%30.42 "HgN/A
8:00 PM35 °FChilly.3 mph65%30.40 "HgN/A
7:00 PM35 °FPassing clouds.5 mph66%30.39 "Hg17 mi
6:00 PM36 °FChilly.6 mph64%30.38 "HgN/A
5:00 PM36 °FChilly.7 mph61%30.37 "HgN/A
4:00 PM38 °FScattered clouds.12 mph55%30.35 "Hg19 mi
3:00 PM39 °FChilly.15 mph57%30.34 "HgN/A
2:00 PM39 °FChilly.15 mph58%30.35 "HgN/A
1:00 PM39 °FPartly sunny.13 mph62%30.37 "Hg22 mi
12:00 PM37 °FChilly.14 mph61%30.38 "HgN/A
11:00 AM37 °FChilly.12 mph63%30.37 "HgN/A
10:00 AM36 °FPartly sunny.3 mph70%30.37 "Hg22 mi
9:00 AM33 °FChilly.2 mph83%30.37 "HgN/A
8:00 AM32 °FChilly.3 mph88%30.37 "HgN/A
7:00 AM34 °FFog.1 mph83%30.34 "Hg6 mi
6:00 AM34 °FChilly.2 mph80%30.33 "HgN/A
Weather by CustomWeather, © 2014

See weather overviewHow to use our weather pages